Hourly Data Report for September 05, 2017

All times are specified in Local Standard Time (LST). Add 1 hour to adjust for Daylight Saving Time where and when it is observed.

IQALUIT CLIMATE
NUNAVUT

63°44'50.000" N
68°32'40.000" W
33.50 m
2402592
71321
XFB

Download Data

Hourly Data (September 2017)
Hourly Data Report for September 5, 2017
Temp Definition
°C
Dew Point Temp Definition
°C
Rel Hum Definition
%
Wind Dir Definition
10's deg

Wind Spd Definition
km/h
Visibility Definition
km
Stn Press Definition
kPa
Hmdx Definition


Wind Chill Definition


Weather Definition


TIME
00:00 2.9 2.1 94 12 9   100.55     LegendNANA
01:00 2.7 1.9 94 13 8   100.53     LegendNANA
02:00 2.8 2.0 95 16 6   100.53     LegendNANA
03:00 2.6 1.3 92 15 5   100.51     LegendNANA
04:00 2.5 1.0 90 15 7   100.51     LegendNANA
05:00 2.5 0.7 88 13 6   100.53     LegendNANA
06:00 2.6 0.5 86 14 9   100.54     LegendNANA
07:00 2.7 0.4 85 14 8   100.53     LegendNANA
08:00 2.7 0.1 83 14 6   100.51     LegendNANA
09:00 2.8 0.2 83 13 7   100.51     LegendNANA
10:00 2.9 0.5 84 15 6   100.49     LegendNANA
11:00 3.4 -0.4 76 21 6   100.44     LegendNANA
12:00 3.9 -0.3 74 21 6   100.40     LegendNANA
13:00 4.4 0.3 75 28 4   100.38     LegendNANA
14:00 4.9 -0.2 69 21 7   100.37     LegendNANA
15:00 5.1 0.1 70 23 5   100.37     LegendNANA
16:00 5.0 -0.1 70 25 3   100.37     LegendNANA
17:00 4.7 0.3 73 14 2   100.37     LegendNANA
18:00 4.5 0.7 76 12 3   100.39     LegendNANA
19:00 4.2 0.9 79 15 3   100.41     LegendNANA
20:00 3.9 1.3 83 21 6   100.41     LegendNANA
21:00 3.4 0.8 83 15 5   100.40     LegendNANA
22:00 3.0 -0.1 80 12 4   100.39     LegendNANA
23:00 3.0 0.0 81 25 4   100.40     LegendNANA

Notes on Data Quality.

Legend

  • E = Estimated
  • M = Missing
  • NA = Not Available
  • ‡ = Partner data that is not subject to review by the National Climate Archives
Date modified: